Regional Weather Roundup
Issued by NWS Nashville, TN

Home | Current Version | Previous Version | Text Only | Print | Product List | Glossary On
Versions: 1 2 3 4 5 6 7 8 9 10 11 12 13 14 15 16 17 18 19 20 21 22 23 24 25 26 27 28 29 30 31 32 33 34 35 36 37 38 39 40 41 42 43 44 45 46 47 48 49 50
366
ASUS44 KOHX 230910
RWROHX
MIDDLE TENNESSEE HOURLY WEATHER ROUNDUP
NATIONAL WEATHER SERVICE NASHVILLE TN
300 AM CST FRI FEB 23 2018

NOTE: "FAIR" INDICATES FEW OR NO CLOUDS BELOW 12,000 FEET WITH
NO SIGNIFICANT WEATHER AND/OR OBSTRUCTIONS TO VISIBILITY.

* THESE REPORTS ARE NOT UNDER NWS QUALITY CONTROL AND MAY NOT
  REPORT WEATHER SUCH AS PRECIPITATION AND FOG.


TNZ005>011-023>034-057-059-062>066-078-080-231000
...NORTHERN MIDDLE TENNESSEE...

CITY           SKY/WX    TMP DP  RH WIND       PRES   REMARKS
CLARKSVILLE    MOCLDY    58  55  90 S5        30.23S
CROSSVILLE       N/A     62  58  86 S6        30.36S
GALLATIN       FOG       55  55 100 CALM      30.28S VSB 1/2
NASHVILLE        N/A     58  56  93 S3        30.26S
PORTLAND       PTCLDY    63  59  88 S10       30.24F
SMYRNA           N/A     54  54 100 CALM      30.28S
SPARTA         PTCLDY    63  59  88 S8        30.30F
SPRINGFIELD    CLOUDY    63  61  94 S10       30.23R
WEST NASHVILLE FOG       54  54 100 CALM      30.24S VSB 1/4
$$
TNZ056-058-060-061-075>077-079-093>097-231000
...SOUTHERN MIDDLE TENNESSEE...

CITY           SKY/WX    TMP DP  RH WIND       PRES   REMARKS
COLUMBIA       CLEAR     66  66 100 S10       30.25S
FAYETTEVILLE   PTCLDY    66  59  77 S12       30.30F
MCMINNVILLE    CLEAR     64  59  82 S5        30.30F
PULASKI        CLOUDY    63  63 100 S9        30.28F
SHELBYVILLE    CLEAR     63  59  88 S7        30.28F
TULLAHOMA      MOCLDY    63  57  82 SE6       30.31S
WINCHESTER     CLEAR     64  59  82 SE10      30.32S
$$


...KEY TO REMARKS...
VSB - VISIBILITY IN MILES
WCI - WIND CHILL INDEX
HX  - HEAT INDEX





USA.gov is the U.S. government's official web portal to all federal, state and local government web resources and services.